TimePDT,TemperatureF,Dew PointF,Humidity,Sea Level PressureIn,VisibilityMPH,Wind Direction,Wind SpeedMPH,Gust SpeedMPH,PrecipitationIn,Events,Conditions,WindDirDegrees,DateUTC
12:53 AM,54.0,44.1,69,29.87,10.0,South,9.2,-,N/A,,Clear,180,2013-04-25 07:53:00
1:53 AM,53.1,44.1,71,29.88,10.0,South,6.9,-,N/A,,Clear,190,2013-04-25 08:53:00
2:53 AM,55.0,44.1,67,29.87,10.0,SW,10.4,17.3,N/A,,Clear,220,2013-04-25 09:53:00
3:53 AM,54.0,44.1,69,29.89,10.0,SW,10.4,-,N/A,,Clear,220,2013-04-25 10:53:00
4:53 AM,52.0,44.1,74,29.91,10.0,SW,5.8,-,N/A,,Clear,230,2013-04-25 11:53:00
5:53 AM,50.0,44.1,80,29.92,10.0,SSW,5.8,-,N/A,,Clear,210,2013-04-25 12:53:00
6:53 AM,50.0,44.1,80,29.95,10.0,SW,4.6,-,N/A,,Clear,220,2013-04-25 13:53:00
7:53 AM,53.1,44.1,71,29.98,10.0,SW,4.6,-,N/A,,Clear,230,2013-04-25 14:53:00
8:53 AM,57.0,45.0,64,29.99,10.0,South,5.8,-,N/A,,Clear,170,2013-04-25 15:53:00
9:53 AM,61.0,45.0,56,30.01,10.0,SW,6.9,-,N/A,,Clear,220,2013-04-25 16:53:00
10:53 AM,64.0,45.0,50,30.02,10.0,SW,10.4,-,N/A,,Clear,230,2013-04-25 17:53:00
11:53 AM,68.0,46.0,45,30.02,10.0,SSW,8.1,-,N/A,,Clear,200,2013-04-25 18:53:00
12:53 PM,69.1,46.0,44,30.02,10.0,Variable,5.8,19.6,N/A,,Clear,0,2013-04-25 19:53:00
1:53 PM,71.1,46.0,41,30.02,10.0,SW,9.2,-,N/A,,Clear,220,2013-04-25 20:53:00
2:53 PM,72.0,48.0,43,30.01,10.0,South,11.5,-,N/A,,Clear,190,2013-04-25 21:53:00
3:53 PM,73.0,48.0,41,30.00,10.0,SSW,10.4,17.3,N/A,,Clear,200,2013-04-25 22:53:00
4:53 PM,72.0,50.0,46,30.00,10.0,SSW,6.9,-,N/A,,Clear,210,2013-04-25 23:53:00
5:53 PM,71.1,48.9,45,30.01,10.0,SW,12.7,18.4,N/A,,Clear,220,2013-04-26 00:53:00
6:53 PM,66.0,48.0,52,30.00,10.0,SSW,10.4,18.4,N/A,,Clear,200,2013-04-26 01:53:00
7:53 PM,61.0,46.9,60,30.03,10.0,SSW,8.1,-,N/A,,Clear,200,2013-04-26 02:53:00
8:53 PM,57.0,46.0,67,30.04,10.0,South,5.8,-,N/A,,Clear,190,2013-04-26 03:53:00
9:53 PM,55.0,46.0,72,30.06,10.0,South,5.8,-,N/A,,Clear,180,2013-04-26 04:53:00
10:53 PM,53.1,46.0,77,30.08,10.0,South,5.8,-,N/A,,Clear,170,2013-04-26 05:53:00
11:53 PM,53.1,45.0,74,30.08,10.0,SSE,6.9,-,N/A,,Clear,160,2013-04-26 06:53:00